#timestamp,LO_Frequency,Hit,StdDev 
1557064815.6,286047002.7,N
1557064835.4,286047002.8,N
1557064855.2,286047003.6,N
1557064875.0,286047005.5,N
1557064876.0,286047005.5,N
1557064895.8,286047005.6,N
1557064915.6,286047005.6,N
1557064935.4,286047004.4,N
1557064955.3,286047004.0,N
1557064975.1,286047003.7,N
1557064995.8,286047003.2,N
1557065015.7,286047003.8,N
1557065035.5,286047003.9,N
1557065055.3,286047003.5,N
1557065075.2,286047004.3,N
1557065095.9,286047002.3,N
1557065115.7,286047002.1,N
1557065135.6,286047003.5,N
1557065155.4,286047006.0,N
1557065175.2,286047007.2,Y
1557065195.0,286047004.8,P
1557065196.0,286047004.8,P
1557065215.8,286047005.2,P
1557065235.6,286047003.5,Y
1557065255.5,286047002.3,P
1557065275.3,286046998.8,N
1557065295.1,286046998.8,N
1557065315.8,286046997.5,N
1557065335.7,286046994.9,N
1557065355.5,286046995.2,N
1557065375.3,286046995.6,N
1557065395.2,286046995.2,N
1557065415.9,286046995.0,N
1557065435.7,286046995.5,N
1557065455.6,286046994.9,N
1557065475.4,286046997.9,N
1557065495.2,286046997.9,N
1557065515.0,286046994.9,N
1557065516.0,286046994.9,N
1557065535.8,286046998.9,N
1557065555.6,286046998.3,N
1557065575.4,286046997.0,N
1557065595.3,286046997.4,N
1557065615.1,286046995.5,N
1557065635.8,286046995.4,N
1557065655.7,286046995.8,N
1557065675.5,286046993.5,N
1557065695.3,286046993.9,N
1557065715.2,286046996.3,N
1557065735.9,286046994.1,N
1557065755.7,286046993.6,N
1557065775.5,286046993.8,N
1557065795.4,286046994.5,N
1557065815.2,286046993.6,N
1557065835.0,286046996.1,N
1557065835.9,286046996.1,N
1557065855.8,286046997.9,N
1557065875.6,286046995.7,N
1557065895.4,286046995.9,N
1557065915.3,286046995.5,Y
1557065935.1,286046999.7,P
1557065955.8,286047000.8,N
1557065975.7,286046998.4,N
1557065995.5,286046999.1,N
1557066015.3,286047000.6,N
1557066035.2,286047000.5,N
1557066055.9,286046998.5,N
1557066075.7,286047000.9,N
1557066095.6,286047004.3,N
1557066115.4,286047006.0,N
1557066135.2,286047003.7,N
1557066155.0,286047004.1,N
1557066155.9,286047004.1,N
1557066175.8,286047002.6,N
1557066195.6,286047002.5,N
1557066215.4,286047001.3,N
1557066235.3,286047001.5,N
1557066255.1,286047000.0,N
1557066275.8,286047000.3,N
1557066295.7,286047000.9,N
1557066315.5,286046998.9,N
1557066335.3,286047001.1,N
1557066355.2,286047001.0,N
1557066375.9,286047000.8,N
1557066395.7,286046996.8,N
1557066415.5,286047002.8,N
1557066435.4,286047001.8,N
1557066455.2,286047001.6,N
1557066475.0,286047000.0,N
1557066475.9,286047000.0,N
1557066495.8,286046998.2,N
1557066515.6,286047001.0,N
1557066535.4,286047000.7,N
1557066555.3,286046998.5,N
1557066575.1,286047001.0,N
1557066576.0,286047001.0,N
1557066595.8,286047000.2,N
1557066615.7,286047001.5,N
1557066635.5,286047001.8,N
1557066655.3,286047001.7,N
1557066675.1,286046999.8,N
1557066695.9,286047000.8,N
1557066715.7,286046997.1,N
1557066735.5,286046995.4,Y
1557066755.4,286046996.3,P
1557066775.2,286046993.9,N
1557066795.0,286046994.1,N
1557066795.9,286046994.1,N
1557066815.8,286046993.9,N
1557066835.6,286046994.0,N
1557066855.4,286046994.4,N
1557066875.3,286046993.4,Y
1557066895.1,286047001.2,P
1557066915.8,286046998.6,N
1557066935.7,286046998.2,N
1557066955.5,286046998.4,N
1557066975.3,286047002.0,N
1557066995.2,286047001.9,N
1557067015.9,286047001.9,N
1557067035.7,286047000.5,N
1557067055.5,286047000.8,N
1557067075.4,286047001.1,N
1557067095.2,286046998.8,N
1557067115.0,286046998.3,N
1557067115.9,286046998.3,N
1557067135.8,286046998.1,N
1557067155.6,286047003.2,N
1557067175.4,286047002.7,N
1557067195.3,286047000.7,N
1557067215.1,286047000.7,N
1557067216.0,286047000.7,N
1557067235.8,286047001.5,N
1557067255.7,286047000.3,N
1557067275.5,286046998.9,N
1557067295.3,286046999.4,N
1557067315.1,286046999.3,N
1557067335.9,286046999.1,N
1557067355.7,286046997.1,N
1557067375.5,286046995.2,N
1557067395.4,286046996.2,N
1557067415.2,286046997.5,N
1557067435.0,286046999.6,N
1557067435.9,286046999.6,N
1557067455.8,286047000.5,N
1557067475.6,286046998.2,N
1557067495.4,286046996.9,N
1557067515.3,286046995.3,N
1557067535.1,286046996.1,N
1557067536.0,286046996.1,N
1557067555.8,286046995.0,N
1557067575.6,286046999.6,N
1557067595.5,286046997.1,N
1557067615.3,286046999.1,N
1557067635.1,286046997.0,N
1557067655.9,286046999.4,N
1557067675.7,286046997.1,N
1557067695.5,286046997.8,N
1557067715.4,286046997.9,N
1557067735.2,286046994.9,N
1557067755.0,286046995.4,N
1557067755.9,286046995.4,N
1557067775.8,286046997.2,N
1557067795.6,286046996.6,N
1557067815.4,286046999.5,N
1557067835.2,286046999.3,N
1557067855.1,286046998.3,N
1557067856.0,286046998.3,N
1557067875.8,286046999.8,N
1557067895.6,286047001.6,N
1557067915.5,286047002.3,N
1557067935.3,286047000.0,N
1557067955.1,286047000.4,N
1557067975.9,286047002.3,N
1557067995.7,286047000.5,N
1557068015.5,286047001.0,N
1557068035.4,286047000.5,N
1557068055.2,286047001.1,N
1557068075.0,286047001.2,N
1557068075.9,286047001.2,N
1557068095.8,286047000.6,N
1557068115.6,286047000.9,N
1557068135.4,286046998.1,N
1557068155.2,286047000.6,N
1557068175.1,286047001.0,N
1557068176.0,286047001.0,N
1557068195.8,286047001.1,N
1557068215.6,286046998.4,N
1557068235.5,286047000.5,N
1557068255.3,286047000.3,N
1557068275.1,286047001.0,N
1557068295.9,286046998.2,N
1557068315.7,286047001.0,N
1557068335.5,286046998.8,N
1557068355.4,286046998.3,N
1557068375.2,286046999.4,N
1557068395.0,286046996.5,N
1557068395.9,286046996.5,N
